Location: Kergonan
(48.2337°N, 4.5518°W)
Time: 00:35:22
(UTC+00:00)

Cosmos 2344 - Pass Details

Date: 18 January 2020
Orbit: 1254 x 2987 km, 63.3° (Epoch: 22 February)

Event Time Altitude Azimuth Distance (km) Brightness Sun altitude
Exits shadow 05:55:02 - 220° (SW) 3,902 5.8 -20.7°
Reaches altitude 10° 05:56:50 10° 220° (SW) 3,243 5.4 -20.4°
Maximum altitude 06:04:18 88° 309° (NW) 1,291 3.5 -19.2°
Drops below altitude 10° 06:12:40 10° 42° (NE) 3,595 6.3 -17.8°
Sets 06:15:52 0° 43° (NE) 4,750 7.0 -17.3°
